[[{"header":{"parameterUnit":"m.s-1","parameterCategory":1,"la1":30.2991,"la2":30.254,"lo1":-89.0895,"lo2":-89.0444,"dy":0.0017,"dx":0.0017,"nx":28,"ny":28,"refTime":"2024-03-25T03:00:00:Z","depth":0,"parameterNumber":2,"parameterNumberName":"U-component_of_WINDS"},"data":[0,0,0,0,0,0,0,0,0,0,0,0,0,0,0,0,0,0,0,0,0,0,0,0,0,0,0,0,0,0,0,0,0,0,0,0,0,0,0,0,0,0,0,0,0,0,0,0,0,0,0,0,0,0,0,0,0,0,-7.6505,-7.6507,0,-7.6719,-7.6722,-7.6724,-7.677,-7.6769,-7.6767,-7.6766,-7.6983,-7.699,-7.6997,0,0,0,0,0,0,0,0,0,0,0,0,0,-7.6134,-7.614,-7.6505,-7.6508,-7.651,-7.6719,-7.6722,-7.6725,-7.6771,-7.6769,-7.6767,-7.6765,-7.698,-7.6989,-7.6998,0,0,0,0,0,0,0,0,0,0,0,0,0,-7.6316,-7.6142,-7.6504,-7.6558,-7.6565,-7.6719,-7.6722,-7.6726,-7.6771,-7.6769,-7.6766,-7.6764,-7.6977,-7.6988,-7.6999,-7.7113,0,0,-7.7032,-7.7037,0,0,0,0,0,0,0,0,-7.6306,-7.633,-7.6548,-7.6555,-7.6563,-7.6716,-7.6671,-7.6855,-7.6772,-7.6693,-7.6766,-7.6763,-7.6896,-7.6913,-7.6958,-7.7123,-7.7132,-7.7033,-7.7039,-7.7044,-7.7047,0,0,0,0,0,0,0,-7.6293,-7.6321,-7.659,-7.6551,-7.656,-7.6571,-7.6595,-7.6706,-7.6805,-7.6699,-7.6703,-7.6728,-7.6899,-7.6948,-7.6964,-7.7135,-7.7033,-7.7042,-7.7049,-7.7053,-7.7405,-7.7407,0,0,0,0,0,0,-7.6271,-7.631,-7.6583,-7.6596,-7.6426,-7.658,-7.6606,-7.6669,-7.6804,-7.6822,-7.673,-7.673,-7.693,-7.6951,-7.6972,-7.7113,-7.7044,-7.7054,-7.706,-7.7402,-7.7405,-7.7408,0,0,0,0,0,0,-7.6263,-7.6295,-7.6574,-7.6454,-7.6491,-7.6589,-7.6659,-7.6675,-7.6723,-7.6827,-7.6844,-7.6761,-7.6929,-7.6956,-7.7078,-7.7121,-7.7059,-7.7069,-7.7399,-7.7403,-7.7407,-7.7398,0,0,0,0,0,0,-7.6252,-7.6292,-7.6336,-7.6455,-7.6497,-7.6677,-7.6662,-7.668,-7.6742,-7.6743,-7.6861,-7.6878,-7.693,-7.7061,-7.7088,-7.7135,-7.7077,-7.7395,-7.7401,-7.7406,-7.7394,-7.7401,-7.7407,0,0,0,0,0,-7.6239,-7.6324,-7.6338,-7.6371,-7.6554,-7.6679,-7.6703,-7.6761,-7.6745,-7.679,-7.6858,-7.6874,-7.7113,-7.7073,-7.7104,-7.7155,-7.7392,-7.7399,-7.7405,-7.7392,-7.74,-7.7407,0,0,0,0,0,0,-7.6207,-7.6341,-7.6357,-7.6484,-7.657,-7.6687,-7.6745,-7.6768,-7.6859,-7.6857,-7.6925,-7.6951,-7.7068,-7.7124,-7.7077,-7.7273,-7.7252,-7.7265,-7.7231,-7.724,-7.7246,-7.7228,-7.7086,0,0,0,0,0,-7.6215,-7.6305,-7.6418,-7.6519,-7.6561,-7.6646,-7.6702,-7.674,-7.6831,-7.6868,-7.6943,-7.7031,-7.7126,-7.7186,-7.7279,-7.7404,-7.743,-7.7455,-7.7461,-7.7465,-7.7475,-7.7545,-7.7557,-7.7429,-7.7429,-7.7429,0,0,-7.6231,-7.6316,-7.6369,-7.6514,-7.6585,-7.6677,-7.6676,-7.6773,-7.6841,-7.6882,-7.7001,-7.706,-7.7162,-7.7286,-7.7344,-7.7336,-7.7516,-7.7473,-7.7476,-7.7483,-7.7552,-7.7564,-7.7575,-7.7434,-7.7433,-7.7432,0,0,-7.6308,-7.6382,-7.6474,-7.6546,-7.6654,-7.671,-7.6732,-7.6847,-7.6887,-7.7008,-7.7041,-7.7124,-7.7286,-7.7357,-7.7415,-7.7522,-7.754,-7.755,-7.7581,-7.7648,-7.7658,-7.7668,-7.7704,-7.7717,-7.756,-7.756,-7.756,0,-7.6314,-7.6455,-7.6518,-7.6614,-7.6677,-7.672,-7.6814,-7.688,-7.7013,-7.7055,-7.7045,-7.725,-7.7322,-7.7462,-7.7489,-7.7535,-7.7561,-7.7535,-7.7652,-7.7662,-7.7671,-7.7707,-7.7721,-7.756,-7.756,-7.756,-7.756,0,-7.6457,-7.6554,-7.6615,-7.6743,-7.6814,-7.6908,-7.6985,-7.7049,-7.7082,-7.7139,-7.7261,-7.735,-7.7462,-7.7499,-7.7531,-7.7644,-7.7636,-7.7639,-7.7618,-7.7683,-7.7717,-7.7732,-7.7561,-7.7561,-7.756,-7.756,0,0,-7.6516,-7.668,-7.6701,-7.676,-7.6884,-7.6959,-7.7056,-7.7167,-7.7219,-7.731,-7.7392,-7.753,-7.7533,-7.7599,-7.764,-7.77,-7.7777,-7.7695,-7.7699,-7.7705,-7.7907,-7.7902,-7.7917,-7.7792,-7.7795,-7.7797,-7.7897,0,-7.6606,-7.678,-7.6841,-7.6985,-7.7074,-7.7118,-7.7203,-7.7288,-7.7344,-7.7429,-7.7492,-7.7588,-7.7586,-7.7626,-7.7687,-7.7755,-7.7818,-7.7749,-7.7867,-7.7871,-7.7837,-7.7935,-7.793,-7.802,-7.7911,-7.7914,-7.7916,0,-7.6734,-7.6827,-7.698,-7.7093,-7.7133,-7.7208,-7.7314,-7.7395,-7.7493,-7.753,-7.7604,-7.7642,-7.7745,-7.7721,-7.7863,-7.7814,-7.7867,-7.7908,-7.7913,-7.7924,-7.7895,-7.7946,-7.8051,-7.8063,-7.7938,-7.7936,-7.7935,0,-7.6759,-7.6924,-7.7036,-7.7086,-7.7221,-7.7272,-7.7331,-7.7427,-7.749,-7.7583,-7.7624,-7.7728,-7.7785,-7.7864,-7.7929,-7.7906,-7.8065,-7.8047,-7.8098,-7.8096,-7.8126,-7.8123,-7.8238,-7.8165,-7.8164,-7.8164,-7.8164,0,-7.6852,-7.6943,-7.705,-7.7118,-7.7222,-7.7292,-7.7393,-7.7454,-7.7539,-7.762,-7.7666,-7.7741,-7.7823,-7.7909,-7.7961,-7.807,-7.8096,-7.8128,-7.814,-7.8123,-7.8118,-7.8156,-7.815,-7.8168,-7.8167,-7.8166,-7.8166,0,-7.6896,-7.6972,-7.7097,-7.7216,-7.7248,-7.7319,-7.7421,-7.7489,-7.7549,-7.7652,-7.768,-7.7774,-7.7878,-7.7951,-7.8085,-7.812,-7.8237,-7.825,-7.8203,-7.8209,-7.8255,-7.8249,-7.8396,-7.8418,-7.8332,-7.8332,-7.8333,0,-7.6949,-7.702,-7.7148,-7.7206,-7.7265,-7.7358,-7.7423,-7.7495,-7.7561,-7.7678,-7.7733,-7.784,-7.7929,-7.8093,-7.8173,-7.8276,-7.829,-7.8335,-7.8305,-7.8286,-7.8288,-7.8282,-7.8289,-7.8338,-7.8338,-7.8339,-7.8339,0,-7.7034,-7.7069,-7.716,-7.7266,-7.7342,-7.7429,-7.7516,-7.7561,-7.7649,-7.772,-7.7827,-7.7897,-7.8034,-7.814,-7.8251,-7.8311,-7.8339,-7.8349,-7.8365,-7.8346,-7.8316,-7.8331,-7.8213,-7.8344,-7.8343,-7.8343,-7.8343,-7.8343,-7.7084,-7.7149,-7.7249,-7.735,-7.7423,-7.7504,-7.7574,-7.7644,-7.7735,-7.7852,-7.789,-7.8001,-7.8098,-7.825,-7.8313,-7.84,-7.8397,-7.8422,-7.8428,-7.8432,-7.8431,-7.8305,-7.8421,-7.8421,-7.8421,-7.8421,-7.8421,0,-7.717,-7.7237,-7.7329,-7.745,-7.7529,-7.7552,-7.7649,-7.7714,-7.7811,-7.79,-7.7988,-7.8111,-7.8214,-7.8304,-7.8411,-7.8464,-7.8479,-7.8489,-7.8484,-7.8498,-7.8428,-7.8402,-7.8475,-7.8475,-7.8474,-7.8474,-7.8474,-7.8474,-7.7223,-7.7335,-7.7381,-7.753,-7.7597,-7.7706,-7.776,-7.7834,-7.7905,-7.8041,-7.8128,-7.8186,-7.8275,-7.8389,-7.8485,-7.8508,-7.8545,-7.8551,-7.8577,-7.8509,-7.8503,-7.8497,-7.8472,-7.8559,-7.8559,-7.864,-7.864,-7.8641]},{"header":{"parameterUnit":"m.s-1","parameterCategory":1,"la1":30.2991,"la2":30.254,"lo1":-89.0895,"lo2":-89.0444,"dy":0.0017,"dx":0.0017,"nx":28,"ny":28,"refTime":"2024-03-25T03:00:00:Z","depth":0,"parameterNumber":3,"parameterNumberName":"V-component_of_WINDS"},"data":[0,0,0,0,0,0,0,0,0,0,0,0,0,0,0,0,0,0,0,0,0,0,0,0,0,0,0,0,0,0,0,0,0,0,0,0,0,0,0,0,0,0,0,0,0,0,0,0,0,0,0,0,0,0,0,0,0,0,7.1853,7.1854,0,7.1959,7.196,7.1961,7.1932,7.1929,7.1927,7.1925,7.2027,7.2032,7.2037,0,0,0,0,0,0,0,0,0,0,0,0,0,7.1622,7.1626,7.1853,7.1854,7.1855,7.1958,7.196,7.1961,7.1932,7.1929,7.1927,7.1924,7.2026,7.2031,7.2037,0,0,0,0,0,0,0,0,0,0,0,0,0,7.1724,7.1627,7.1852,7.1853,7.1854,7.1958,7.196,7.1962,7.1932,7.1929,7.1926,7.1923,7.2024,7.2031,7.2038,7.2145,0,0,7.2059,7.2062,0,0,0,0,0,0,0,0,7.1718,7.1732,7.1852,7.1853,7.1855,7.1929,7.1916,7.2023,7.1933,7.1903,7.1925,7.1922,7.1997,7.2006,7.2032,7.215,7.2154,7.206,7.2064,7.2067,7.2069,0,0,0,0,0,0,0,7.1711,7.1728,7.1894,7.1853,7.1855,7.1847,7.1858,7.1936,7.1966,7.1905,7.1903,7.1916,7.1997,7.2026,7.2035,7.2156,7.206,7.2066,7.207,7.2073,7.237,7.2374,0,0,0,0,0,0,7.1704,7.1722,7.1891,7.1897,7.1777,7.1854,7.1866,7.1908,7.1965,7.1971,7.1919,7.1915,7.2015,7.2026,7.2038,7.2171,7.2067,7.2074,7.2078,7.2367,7.2371,7.2375,0,0,0,0,0,0,7.1699,7.1719,7.1887,7.1809,7.183,7.1861,7.1908,7.1912,7.1941,7.1976,7.1981,7.1943,7.2013,7.2028,7.212,7.2173,7.2077,7.2083,7.2362,7.2368,7.2373,7.2434,0,0,0,0,0,0,7.1692,7.1717,7.1759,7.1811,7.1834,7.1968,7.1912,7.1916,7.1954,7.1949,7.2,7.2005,7.2012,7.211,7.2127,7.2181,7.2089,7.2358,7.2365,7.2372,7.2428,7.2441,7.2453,0,0,0,0,0,7.1684,7.177,7.1761,7.1782,7.1887,7.1971,7.1985,7.1992,7.1958,7.2,7.2023,7.2003,7.2165,7.2119,7.2139,7.2196,7.2354,7.2363,7.2371,7.2422,7.2439,7.2453,0,0,0,0,0,0,7.172,7.1776,7.1768,7.1873,7.1918,7.1966,7.2019,7.2009,7.2063,7.2056,7.2061,7.2073,7.2168,7.2191,7.2139,7.2305,7.2254,7.2267,7.2287,7.2303,7.2315,7.2308,7.2095,0,0,0,0,0,7.1741,7.1806,7.185,7.1939,7.1962,7.1987,7.2024,7.2027,7.2072,7.2091,7.212,7.2164,7.2225,7.2265,7.2322,7.2431,7.2442,7.248,7.2492,7.2502,7.2513,7.2576,7.2594,7.2402,7.2402,7.2402,0,0,7.1783,7.1822,7.1862,7.1947,7.1983,7.205,7.2003,7.2074,7.2124,7.2101,7.2191,7.2214,7.2264,7.2366,7.2412,7.2387,7.2569,7.2513,7.2521,7.2526,7.2586,7.2604,7.262,7.2408,7.2407,7.2406,0,0,7.1895,7.1931,7.201,7.2048,7.2103,7.212,7.2139,7.219,7.2206,7.2297,7.2282,7.234,7.2444,7.2481,7.2513,7.2644,7.2629,7.2662,7.2728,7.2789,7.2804,7.2817,7.2867,7.2884,7.2673,7.2673,7.2673,0,7.1941,7.2042,7.2051,7.2127,7.2165,7.215,7.2231,7.2266,7.2337,7.2363,7.2336,7.2469,7.2501,7.2613,7.2645,7.2671,7.2694,7.2657,7.2801,7.2815,7.2828,7.2875,7.2893,7.2677,7.2677,7.2676,7.2676,0,7.2097,7.2167,7.2225,7.2298,7.2342,7.2419,7.244,7.2484,7.2484,7.2503,7.2598,7.2636,7.2703,7.2729,7.2728,7.2842,7.2826,7.28,7.275,7.285,7.2894,7.2912,7.2683,7.2681,7.268,7.2679,0,0,7.2233,7.2313,7.2334,7.2369,7.243,7.2485,7.2561,7.263,7.2669,7.2718,7.2784,7.2874,7.2852,7.2889,7.2892,7.2945,7.305,7.2913,7.2914,7.2939,7.3181,7.3202,7.3223,7.304,7.3043,7.3046,7.3178,0,7.2352,7.2491,7.2503,7.2627,7.2694,7.2683,7.275,7.2795,7.2816,7.2875,7.2897,7.2962,7.2926,7.2949,7.3001,7.3026,7.3099,7.3016,7.3101,7.3104,7.3091,7.3245,7.3267,7.3389,7.3195,7.3198,7.32,0,7.251,7.2569,7.2701,7.2757,7.2785,7.2846,7.2912,7.2968,7.3019,7.3031,7.3075,7.3071,7.3151,7.3098,7.3208,7.3152,7.3187,7.3205,7.321,7.3219,7.3159,7.3261,7.3428,7.3448,7.3227,7.3225,7.3223,0,7.26,7.2711,7.2806,7.2835,7.2902,7.2946,7.2975,7.3024,7.3065,7.3122,7.3149,7.3213,7.3249,7.3298,7.3312,7.3272,7.3423,7.337,7.3435,7.3436,7.3468,7.3466,7.3646,7.3488,7.3488,7.3488,7.3487,0,7.2733,7.2815,7.2848,7.2906,7.2998,7.3011,7.3101,7.3128,7.3172,7.3235,7.3227,7.3286,7.33,7.3362,7.3373,7.3464,7.3479,7.3491,7.3494,7.3493,7.3492,7.3517,7.351,7.3493,7.3491,7.349,7.349,0,7.2849,7.2874,7.2977,7.3034,7.305,7.3115,7.3163,7.322,7.324,7.3321,7.334,7.3372,7.3445,7.3464,7.3549,7.3557,7.3666,7.3658,7.3649,7.365,7.3715,7.371,7.3919,7.3948,7.3769,7.377,7.3772,0,7.2933,7.2997,7.3062,7.3105,7.3138,7.3207,7.3251,7.3266,7.3312,7.3378,7.3426,7.3498,7.3557,7.3674,7.3704,7.377,7.3766,7.3835,7.3776,7.3775,7.377,7.3767,7.3775,7.3847,7.3848,7.385,7.3851,0,7.3081,7.3092,7.3156,7.3227,7.3281,7.3336,7.3389,7.3424,7.3447,7.3499,7.3575,7.3621,7.3711,7.3784,7.3852,7.388,7.3871,7.387,7.3889,7.389,7.3883,7.3891,7.3682,7.3865,7.3864,7.3863,7.3862,7.3861,7.3186,7.3243,7.3299,7.3373,7.3415,7.3466,7.3523,7.3553,7.3617,7.3694,7.3698,7.3782,7.3834,7.3924,7.3957,7.4022,7.4001,7.4028,7.4035,7.4042,7.405,7.3872,7.4034,7.4034,7.4033,7.4033,7.4033,0,7.3336,7.3372,7.344,7.3517,7.3575,7.3563,7.3622,7.3671,7.3745,7.3795,7.3855,7.3944,7.4015,7.4052,7.4123,7.4168,7.4165,7.4186,7.4184,7.4191,7.4063,7.404,7.4187,7.4187,7.4187,7.4187,7.4187,7.4187,7.3421,7.3519,7.3536,7.3656,7.3691,7.3775,7.381,7.3857,7.3898,7.3999,7.4059,7.4084,7.413,7.4204,7.4269,7.4278,7.4306,7.433,7.4336,7.4216,7.42,7.4185,7.4164,7.4335,7.4335,7.446,7.4461,7.4462]}]]